SB KEPS @ AMSAT $ORB14149.N 2Line Orbital Elements 14149.AMSAT
HR AMSAT ORBITAL ELEMENTS FOR AMATEUR SATELLITES IN NASA FORMAT FROM WA5QGD FORT WORTH,TX May 29, 2014 BID: ORB14149.N
DECODE 2-LINE ELSETS WITH THE FOLLOWING KEY: 1 AAAAAU 00 0 0 BBBBB.BBBBBBBB .CCCCCCCC 00000-0 00000-0 0 DDDZ 2 AAAAA EEE.EEEE FFF.FFFF GGGGGGG HHH.HHHH III.IIII JJ.JJJJJJJJKKKKKZ KEY: A-CATALOGNUM B-EPOCHTIME C-DECAY D-ELSETNUM E-INCLINATION F-RAAN G-ECCENTRICITY H-ARGPERIGEE I-MNANOM J-MNMOTION K-ORBITNUM Z-CHECKSUM
TO ALL RADIO AMATEURS BT
AO-07 1 07530U 74089B 14149.85935569 -.00000021 00000-0 13984-3 0 9769 2 07530 101.4700 132.2952 0011689 333.1073 084.2925 12.53605123809228 FO-29 1 24278U 96046B 14149.73520632 -.00000065 00000-0 -29012-4 0 3833 2 24278 098.5124 166.1381 0350023 345.6994 073.5897 13.53024431878179 SO-33 1 25509U 98061B 14149.70455046 .00000207 00000-0 27955-4 0 7602 2 25509 031.4324 265.1096 0349506 312.4300 155.2993 14.29543385814505 RS-22 1 27939U 03042A 14149.58946389 .00000303 00000-0 64670-4 0 5292 2 27939 097.8077 324.6603 0013443 161.7695 198.3982 14.65190234570001 VO-52 1 28650U 05017B 14149.62950844 .00000724 00000-0 89457-4 0 7506 2 28650 097.5596 155.5249 0024507 215.5623 144.3961 14.85446964490470 HO-68 1 36122U 09072B 14149.71651817 -.00000043 00000-0 00000 0 0 6317 2 36122 100.2493 202.1545 0007275 280.5366 079.4929 13.16315740214003 AO-73 1 39444U 13066AE 14149.74508743 .00001288 00000-0 17916-3 0 1546 2 39444 097.7719 221.0216 0061205 303.7548 055.7763 14.78265041 26744 UO-11 1 14781U 84021B 14148.78412080 .00000339 00000-0 49823-4 0 5030 2 14781 097.8536 209.2881 0007716 236.6428 123.4047 14.81585519625093 AO-16 1 20439U 90005D 14149.79755907 .00000069 00000-0 41436-4 0 336 2 20439 098.5060 087.4803 0010474 207.5974 205.3445 14.32354185271850 LO-19 1 20442U 90005G 14148.79796412 .00000076 00000-0 43829-4 0 9701 2 20442 098.4769 087.2132 0011591 200.1086 159.9643 14.32556747271904 AO-27 1 22825U 93061C 14148.94205370 .00000069 00000-0 44225-4 0 6775 2 22825 098.6607 095.1265 0008152 002.9533 039.4339 14.29717735 78038 IO-26 1 22826U 93061D 14148.79326056 .00000075 00000-0 46295-4 0 4330 2 22826 098.6549 095.2010 0008514 355.4158 004.6944 14.30017804 78144 GO-32 1 25397U 98043D 14149.81503024 .00000030 00000-0 31575-4 0 3578 2 25397 098.4668 108.4898 0001669 053.0700 008.5530 14.23443288825256 NO-44 1 26931U 01043C 14148.95270714 .00000051 00000-0 51765-4 0 6128 2 26931 067.0525 088.0555 0006224 282.9775 077.0631 14.30114491660850 SO-50 1 27607U 02058C 14149.76341692 .00000265 00000-0 60833-4 0 4064 2 27607 064.5574 288.5060 0045299 016.5272 343.7293 14.73757953614762 CO-55 1 27844U 03031E 14148.98457802 .00000164 00000-0 95132-4 0 9347 2 27844 098.6976 158.0336 0008914 337.4569 074.6954 14.21501857565855 CO-57 1 27848U 03031J 14148.98525707 .00000138 00000-0 83471-4 0 8759 2 27848 098.7070 157.7346 0008923 344.4241 068.1008 14.21189326565779 AO-51 1 28375U 04025K 14149.81061245 .00000141 00000-0 54528-4 0 8513 2 28375 098.2489 097.3465 0083934 048.7256 312.1123 14.41381506521262 CP3 1 31129U 07012N 14149.53471750 .00000649 00000-0 15217-3 0 7588 2 31129 097.9323 128.4637 0099822 069.5344 055.5591 14.54659100377320 CO-65 1 32785U 08021C 14149.16747852 .00000852 00000-0 10529-3 0 9619 2 32785 097.7009 201.0881 0012603 247.2672 180.9127 14.85261562329205 PRISM 1 33493U 09002B 14149.73835395 .00003401 00000-0 36369-3 0 9601 2 33493 098.2476 324.6087 0018708 140.9363 219.3168 14.89352196289434 SOHLA-1 1 33496U 09002E 14149.82998446 .00000201 00000-0 41148-4 0 3624 2 33496 098.1680 270.7185 0005063 304.8394 172.9514 14.70798973286813 TISAT-1 1 36799U 10035E 14149.76380254 .00002088 00000-0 24724-3 0 2215 2 36799 098.0164 241.6206 0014493 027.6225 332.5745 14.85606546209982 STUDSAT 1 36801U 10035G 14149.82324980 .00004607 00000-0 41142-3 0 8308 2 36801 098.0349 249.3661 0007929 000.0477 114.4072 14.96426896210387 ALMASAT-1 1 38078U 12006B 14149.79959209 .00030366 00000-0 65544-3 0 383 2 38078 069.4695 103.6072 0597246 056.2310 020.9907 14.48625466118975 XATCOBEO 1 38082U 12006F 14149.76704622 .00200650 13728-4 12783-2 0 2627 2 38082 069.4425 008.0187 0223570 003.3951 086.9363 15.49199842121536 CUBEBUG-1 1 39153U 13018D 14149.73630808 .00001212 00000-0 17615-3 0 1618 2 39153 098.0438 230.0756 0019078 053.3540 306.9424 14.77685659 58833 ESTCUBE-1 1 39161U 13021C 14149.77594301 .00000958 00000-0 16806-3 0 1439 2 39161 098.0979 230.8081 0011674 093.3603 266.8916 14.69972437 56897 MET-2/21 1 22782U 93055A 14149.71613941 .00000014 00000-0 -13144-6 0 675 2 22782 082.5481 187.9606 0020985 318.9169 171.4396 13.83736494 47560 OKEAN-4 1 23317U 94066A 14149.82594833 .00000555 00000-0 61205-4 0 5452 2 23317 082.5394 085.1468 0021646 156.1210 259.8994 14.85504342 60385 NOAA-14 1 23455U 94089A 14148.32616911 -.00000063 00000-0 -10046-4 0 7642 2 23455 098.7783 232.1147 0010563 097.7567 303.9804 14.13974218 1142 NOAA-15 1 25338U 98030A 14149.78224681 .00000205 00000-0 87063-4 0 1995 2 25338 098.7514 143.6751 0010118 195.8432 164.2906 14.25423319834228 RESURS 1 25394U 98043A 14148.83499434 -.00000025 00000-0 71579-5 0 6662 2 25394 098.4110 114.0228 0000851 022.5915 032.6797 14.24394816825566 FENGYUN1 1 25730U 99025A 14149.83829251 .00000290 00000-0 18220-3 0 1572 2 25730 098.9114 111.0443 0025965 158.8408 261.1958 14.11882344774934 OKEAN-0 1 25860U 99039A 14149.79297105 .00000318 00000-0 54458-4 0 2625 2 25860 098.0409 113.7687 0002080 108.5130 311.8541 14.75261871799442 NOAA-16 1 26536U 00055A 14149.74205183 .00000155 00000-0 83225-4 0 6881 2 26536 098.9914 210.0209 0009791 234.0777 125.9972 14.13044486705589 NOAA-17 1 27453U 02032A 14149.72315185 .00000087 00000-0 37148-4 0 5931 2 27453 098.3127 150.4062 0010736 224.8211 135.2577 14.24747832619983 NOAA-18 1 28654U 05018A 14149.80744315 .00000176 00000-0 96360-4 0 870 2 28654 099.1455 128.9368 0013748 319.1971 040.8639 14.12020033464977 NOAA-19 1 33591U 09005A 14148.50868707 .00000033 00000-0 42566-4 0 2462 2 33591 098.9435 093.6061 0014310 170.8297 304.6965 14.11717501273215 HUBBLE 1 20580U 90037B 14147.51630336 .00001154 00000-0 66674-4 0 229 2 20580 028.4688 173.0101 0003338 063.2416 064.8356 15.05400702121601 ISS 1 25544U 98067A 14149.92532980 .00002996 00000-0 59415-4 0 3849 2 25544 051.6477 190.1227 0004095 048.2953 010.7504 15.50519974888493 CO-58 1 28895U 05043F 14149.52453070 .00000367 00000-0 82014-4 0 7790 2 28895 097.8367 352.3610 0018684 072.5441 287.7802 14.61873857457521 FALCON 1 30776U 07006E 14148.69479766 .00004389 00000-0 22488-3 0 8763 2 30776 035.4285 234.4168 0001507 149.1833 340.7083 15.16130960397772 MAST 1 31126U 07012K 14148.95138855 .00000430 00000-0 10369-3 0 557 2 31126 097.9125 130.8487 0093202 055.1475 005.0917 14.55260507377590 CAPE1 1 31130U 07012P 14147.91648802 .00000654 00000-0 15379-3 0 616 2 31130 097.9333 126.4968 0100478 075.8373 285.3964 14.54413301376866 COMPASS 1 32787U 08021E 14149.13411691 .00001779 00000-0 20026-3 0 9417 2 32787 097.7029 203.2105 0012834 239.0032 120.9924 14.87834812329358 AAUSAT2 1 32788U 08021F 14149.14731645 .00001834 00000-0 20281-3 0 9283 2 32788 097.7039 204.1877 0012345 236.6990 123.3045 14.88538236329419 DO-64 1 32789U 08021G 14149.18699466 .00004719 00000-0 45614-3 0 9688 2 32789 097.7223 210.5445 0011489 220.6280 205.2795 14.93227715329662 CO-66 1 32791U 08021J 14149.61204015 .00002083 00000-0 23526-3 0 9254 2 32791 097.7025 202.4755 0012981 243.3225 116.7177 14.86519914879823 RS-30 1 32953U 08025A 14149.71872039 .00000010 00000-0 00000 0 0 9634 2 32953 082.5042 212.6925 0018844 192.4483 167.6134 12.43047518272967 METEOR-M 1 35865U 09049A 14149.71885301 -.00000014 00000-0 12780-4 0 5771 2 35865 098.5498 197.6890 0002938 133.3616 226.7807 14.21922660243719 RS-38 1 35869U 09049E 14149.78500623 .00000008 00000-0 22732-4 0 4985 2 35869 098.5444 197.5599 0005601 140.6774 355.4141 14.22210352243759 JUGNU 1 37839U 11058B 14149.73555765 .00000387 00000-0 64973-4 0 6265 2 37839 019.9627 006.7670 0018897 141.1524 299.1620 14.12309257135948 SRMSAT 1 37841U 11058D 14148.09081708 .00000348 00000-0 46919-4 0 6309 2 37841 019.9730 035.6520 0011921 063.8772 076.7228 14.10350959135516 RAX-2 1 37853U 11061D 14149.67977310 .00005030 00000-0 34943-3 0 8177 2 37853 101.7142 170.4988 0217594 110.3327 008.2535 14.89196675139907 AUBIESAT 1 37854U 11061E 14148.67596572 .00005699 00000-0 38305-3 0 7989 2 37854 101.7183 170.8090 0215509 110.5308 009.2261 14.90491147139806 HRBE 1 37855U 11061F 14149.66246361 .00004710 00000-0 32201-3 0 8060 2 37855 101.7184 171.6597 0217479 108.8702 006.3822 14.89825935139923 RS-39 1 38051U 11062C 14149.80956758 .00042609 00000-0 54661-3 0 5828 2 38051 051.6273 315.1803 0003582 143.2246 356.1032 15.58699157131241 E-STAR 1 38079U 12006C 14148.15464418 .00107082 55531-5 12997-2 0 8640 2 38079 069.4553 044.3794 0381915 023.9584 125.6722 15.05359014120449 GOLIAT 1 38085U 12006J 14149.83812927 .00090101 48418-5 11509-2 0 802 2 38085 069.4587 046.6121 0403575 024.9071 337.0972 14.99926513120522 HORYU-2 1 38340U 12025D 14148.85823048 .00001064 00000-0 17584-3 0 8644 2 38340 098.2588 105.7310 0011248 236.4968 123.5167 14.72492160108955 RS-40 1 38735U 12041C 14148.55797902 .00000024 00000-0 10000-3 0 5802 2 38735 082.4733 299.7789 0016115 299.2269 060.7201 12.42559569 83149 PROITERES 1 38756U 12047B 14149.80695720 .00000359 00000-0 61344-4 0 8739 2 38756 098.2284 237.8000 0013779 085.1838 275.0943 14.74949006 92470 BEESAT-3 1 39134U 13015E 14149.58084826 .00002669 00000-0 18479-3 0 5991 2 39134 064.8755 197.4262 0027412 311.8865 048.0417 15.05129737 60860 BEESAT-2 1 39136U 13015G 14149.70385016 .00002152 00000-0 15138-3 0 5842 2 39136 064.8751 197.4573 0027396 311.6935 048.2356 15.04539487 60871 LO-75 1 39382U 13064C 14149.56953815 .00041893 00000-0 93117-3 0 2509 2 39382 040.4953 206.7729 0016963 104.0154 256.2533 15.42726779 29181 ZACUBE-1 1 39417U 13066B 14149.14853161 .00000640 00000-0 93128-4 0 3089 2 39417 097.7754 220.4234 0061199 305.8699 053.6886 14.78063988 27883 TRITON-1 1 39427U 13066M 14149.40885804 .00000809 00000-0 14395-3 0 1632 2 39427 097.7644 216.8739 0117520 310.8240 048.2822 14.65362839 27646 DELFIN3XT 1 39428U 13066N 14149.23653173 .00001333 00000-0 23887-3 0 1668 2 39428 097.7612 216.0134 0127823 312.9677 046.0838 14.63248203 27567 GOMX-1 1 39430U 13066Q 14149.76234848 .00000664 00000-0 13533-3 0 5143 2 39430 097.7604 214.6953 0155868 315.9973 042.8888 14.56801593 27531 MO-76 1 39436U 13066W 14149.16219951 .00009273 00000-0 96530-3 0 2208 2 39436 097.7783 223.0742 0024900 313.8566 046.0204 14.89822460 28049 LO-74 1 39440U 13066AA 14149.72317900 .00000935 00000-0 14558-3 0 1618 2 39440 097.7703 219.4687 0083017 305.5324 053.8148 14.73018548 27866 PUCPSAT-1 1 39442U 13066AC 14149.85256279 .00001788 00000-0 20870-3 0 1593 2 39442 097.7814 223.4229 0033772 307.2525 052.5580 14.86023839 26906 LITUANSAT 1 39569U 98067EN 14149.64034990 .00116658 00000-0 77263-3 0 2781 2 39569 051.6422 183.6447 0009823 359.6240 086.4820 15.74600422 14103 SHINAISAT 1 39572U 14009A 14149.59031785 .00036100 00000-0 32102-3 0 1271 2 39572 065.0077 107.4339 0016385 291.2594 068.7330 15.67972552 14196 OPUSAT 1 39575U 14009D 14149.67167855 .00161445 00000-0 74790-3 0 1541 2 39575 065.0027 103.6550 0014110 304.4871 055.5480 15.82910724 14275 TEIKYOSAT 1 39576U 14009E 14149.66243056 .00044265 00000-0 34626-3 0 1318 2 39576 065.0084 106.2642 0015054 306.6996 053.3297 15.71097252 14227 IFT-1 1 39577U 14009F 14149.42486513 .00092366 00000-0 55623-3 0 1382 2 39577 065.0059 105.6304 0014453 308.2758 051.7623 15.77165674 14218 CO-77 1 39578U 14009G 14137.79435183 .04930316 75580-5 46746-3 0 1855 2 39578 064.9698 141.4483 0010610 288.0688 072.6747 16.37966192 12465 STARS-II 1 39579U 14009H 14116.06110564 .20186783 77451-5 52661-3 0 1329 2 39579 064.9886 219.0071 0013010 293.8065 069.6132 16.44611049 9028 SPROUT 1 39770U 14029E 14149.91137438 .00001040 00000-0 13577-3 0 203 2 39770 097.8722 247.3486 0010648 021.7372 338.4492 14.82570585 837 /EX